Regional Weather Roundup
Issued by NWS

Home | Current Version | Previous Version | Text Only | Print | Product List | Glossary On
Versions: 1 2 3 4 5 6 7 8 9 10 11 12 13 14 15 16 17 18 19 20 21 22 23 24 25 26 27
000
ASUS43 KMPX 101710
RWRMN
WEATHER ROUNDUP FOR MINNESOTA
NATIONAL WEATHER SERVICE TWIN CITIES/CHANHASSEN MN
1200 PM CDT MON MAY 10 2021


NOTE: "FAIR" INDICATES FEW OR NO CLOUDS BELOW 12,000 FEET WITH NO
SIGNIFICANT WEATHER AND/OR OBSTRUCTIONS TO VISIBILITY. N/A MEANS
CURRENT SKY AND/OR WEATHER CONDITIONS ARE NOT AVAILABLE.

MNZ060>063-068>070-101800-
   Twin Cities Metro

CITY           SKY/WX    TMP DP  RH WIND       PRES   REMARKS
TWIN CITIES    MOSUNNY   51  26  37 NE13G18   30.23R
ST PAUL        PTSUNNY   52  26  36 E7        30.24R
CRYSTAL        PTSUNNY   51  23  33 NE8G17    30.22R
BLAINE         PTSUNNY   52  21  30 NE12G20   30.23R
LAKEVILLE      MOSUNNY   52  25  35 E10       30.22R
EDEN PRAIRIE   MOSUNNY   52  28  39 NW13G18   30.21R
SOUTH ST PAUL  MOSUNNY   51  24  35 E9        30.23R
$$
MNZ001>005-007-008-013>017-022>024-027-028-101800-
   Northwest Minnesota

CITY           SKY/WX    TMP DP  RH WIND       PRES   REMARKS
BEMIDJI        CLOUDY    46  20  35 CALM      30.28S
HALLOCK        MOSUNNY   52  19  28 NE5       30.32S
ROSEAU           N/A     52 N/A N/A S3        30.32S
WARROAD        MOSUNNY   45  27  49 E9        30.34S
THIEF RVR FALL MOSUNNY   47  20  34 NE9       30.32S
CROOKSTON      MOSUNNY   48  18  29 E6        30.32S
FOSSTON        CLOUDY    45  18  33 N5        30.30R
DETROIT LAKES  PTSUNNY   48  19  32 VRB7G15   30.28R
MOORHEAD       SUNNY     52  12  20 NE9       30.30R
PARK RAPIDS    CLOUDY    46  19  34 VRB5      30.27R
MAHNOMEN       PTSUNNY   48  20  33 N5        30.29S
$$
MNZ006-009>011-018-025>026-101800-
   North Central Minnesota

CITY           SKY/WX    TMP DP  RH WIND       PRES   REMARKS
BAUDETTE       PTSUNNY   48  21  34 NE14G20   30.32S
FLAG ISLAND    PTSUNNY   43  19  39 N9G20     30.33S
INTL FALLS     CLOUDY    46  23  40 NE13G21   30.30S
WASKISH        PTSUNNY   46  21  36 N8        30.30S
BIG FORK       MOSUNNY   46  19  34 N5        30.32S
LONGVILLE      CLOUDY    46  19  34 N7        30.26S
GRAND RAPIDS   CLOUDY    46  22  38 NW9       30.28S
CRANE LAKE     CLOUDY    45  23  42 N8        30.31S
ORR            PTSUNNY   48  18  29 NW8       30.26S
COOK           PTSUNNY   46  21  36 NE8       30.26S
WALKER         PTSUNNY   47  23  39 E7        30.28S
$$
MNZ012-019>021-037-101800-
   Northeast Minnesota

CITY           SKY/WX    TMP DP  RH WIND       PRES   REMARKS
DULUTH         PTSUNNY   45  25  45 N6        30.24S
ELY            CLOUDY    45  19  36 NE9       30.25S
HIBBING        CLOUDY    46  20  35 NE8       30.25S
EVELETH        PTSUNNY   47  21  36 N8        30.26S
DULUTH HARBOR  MOSUNNY   45  28  53 E6        30.28S
TWO HARBORS    MOSUNNY   46  28  49 SE7       30.24S
SILVER BAY     CLOUDY    43  27  52 SE7       30.25R
GRAND MARAIS     N/A     47  25  42 VRB5      30.25S
G MARAIS ARPRT CLOUDY    41  21  45 NW9G17    30.22R
$$
MNZ029>031-032-039>041-046>048-054>057-064-101800-
   West Central Minnesota

CITY           SKY/WX    TMP DP  RH WIND       PRES   REMARKS
FERGUS FALLS   PTSUNNY   48  25  40 NE6G16    30.24R
WHEATON        CLOUDY    48  19  32 CALM      30.29R
MORRIS         MOSUNNY   54  14  20 NE7G18    30.27R
ALEXANDRIA     CLOUDY    47  21  35 E9        30.27R
ELBOW LAKE     CLOUDY    47  25  42 E3        30.28R
WADENA         CLOUDY    46  25  42 NE9       30.27S
GLENWOOD       MOSUNNY   48  21  34 N12G18    30.26R
APPLETON       PTSUNNY   52  19  28 N9        30.25R
BENSON         PTSUNNY   52  25  35 E8        30.26S
ORTONVILLE     CLOUDY    50  27  40 NE6       30.26R
MADISON        PTSUNNY   54  27  35 N7        30.26R
WILLMAR        FAIR      52  23  32 N3        30.28R
$$
MNZ033>034-036-042>043-049>051-058-059-101800-
   Central Minnesota

CITY           SKY/WX    TMP DP  RH WIND       PRES   REMARKS
ST CLOUD       CLOUDY    48  20  32 NE7       30.25R
SAUK CENTRE    CLOUDY    46  21  38 N8        30.27R
PAYNESVILLE    PTSUNNY   48  25  40 N12G21    30.26R
AITKIN         MOSUNNY   46  18  31 NE5       30.27R
PINE RIVER     CLOUDY    46  23  39 N7        30.30R
BRAINERD       CLOUDY    48  19  31 MISG      30.27R
STAPLES        CLOUDY    48  19  32 E6        30.27R
LONG PRAIRIE   CLOUDY    45  21  39 NE6       30.27R
LITTLE FALLS   CLOUDY    46  12  25 NE7       30.26R
LITCHFIELD     MOSUNNY   52  27  37 NE12G18   30.24R
BUFFALO        PTSUNNY   51  22  32 MISG      30.24S
MAPLE LAKE     CLOUDY    50  25  36 N12       30.25S
HUTCHINSON     MOSUNNY   52  29  41 N8G17     30.24R
$$
MNZ037-044-045-052-053-101800-
   East Central Minnesota

CITY           SKY/WX    TMP DP  RH WIND       PRES   REMARKS
PRINCETON      CLOUDY    50  21  32 NE8       30.26R
MORA           MOSUNNY   45  23  42 E3        30.27R
CAMBRIDGE      PTSUNNY   50  28  43 NE6       30.25
RUSH CITY      CLOUDY    47  23  39 N7        30.26R
MOOSE LAKE     CLOUDY    45  27  49 NE7       30.24S
HINCKLEY       CLOUDY    46  23  39 N6        30.25S
CLOQUET        CLOUDY    43  25  49 N6        30.24R
MCGREGOR       CLOUDY    45  25  45 N6        30.27R
$$
MNZ071>073-080-081-089-090-097-098-101800-
   Southwest Minnesota

CITY           SKY/WX    TMP DP  RH WIND       PRES   REMARKS
MONTEVIDEO     MOSUNNY   52  19  28 E7G16     30.25R
GRANITE FALLS  CLOUDY    53  30  42 N8        30.26R
CANBY          PTSUNNY   53  26  35 N12G18    30.25R
MARSHALL       MOSUNNY   52  27  38 NE8G17    30.22S
REDWOOD FALLS  PTSUNNY   52  25  35 MISG      30.23R
OLIVIA         SUNNY     50  23  34 NE10G17   30.23R
PIPESTONE      SUNNY     52  30  43 NE13      30.19R
WINDOM         MOSUNNY   54  27  35 NE14      30.19R
WORTHINGTON    SUNNY     53  28  38 NE10G22   30.19R
JACKSON        SUNNY     52  28  40 NE14      30.19R
TRACY          MOSUNNY   54  23  30 NE12G17   30.21R
SLAYTON        SUNNY     52  25  35 N15       30.20S
$$
MNZ065>067-074>077-082>085-091>093-101800-
   South Central Minnesota

CITY           SKY/WX    TMP DP  RH WIND       PRES   REMARKS
MANKATO        SUNNY     51  28  41 NE14      30.22R
NEW ULM        MOSUNNY   52  27  37 NE9G23    30.22R
ST JAMES       MOSUNNY   54  27  35 NE13G18   30.20R
FAIRMONT       SUNNY     54  28  36 NE10      30.19R
GLENCOE        MOSUNNY   50  25  38 N10G21    30.22S
FARIBAULT      PTSUNNY   52  27  37 N10       30.22R
OWATONNA       MOSUNNY   48  34  57 NE6       30.21R
WASECA         CLOUDY    46  32  57 NE9       30.23R
ALBERT LEA     MOSUNNY   54  30  40 E12G21    30.18R
$$
MNZ078>079-086>088-094>096-101800-
   Southeast Minnesota

CITY           SKY/WX    TMP DP  RH WIND       PRES   REMARKS
ROCHESTER      CLOUDY    47  31  53 NE8       30.21R
RED WING       MOSUNNY   52  23  32 E9G16     30.21R
STANTON        MOSUNNY   51  29  42 E8        30.21R
DODGE CENTER   SUNNY     46  30  53 N9        30.21R
WINONA         CLOUDY    46  32  57 CALM      30.22R
AUSTIN         MOSUNNY   52  36  54 NE8G21    30.18R
PRESTON        MOSUNNY   47  34  58 N13G18    30.19R
$$
ABBREVIATIONS USED IN REMARKS
   TC - TEMPERATURES IN CELSIUS
  WCI - WIND CHILL INDEX
   HX - HEAT INDEX
  VSB - VISIBILITY
$$



USA.gov is the U.S. government's official web portal to all federal, state and local government web resources and services.